2020-001BR

Last updated on Jan. 16, 2020, 12:02 a.m. UTC

1 44977U 20001BR  20015.34735701  .00106313  15967-4  21611-3 0  9992
2 44977  52.9980 355.5041 0008349  21.4815 338.6562 15.99321979  1328

Satellite is not in orbit.